Regional Weather Roundup
Issued by NWS Kansas City/Pleasant Hill, MO

Home | Current Version | Previous Version | Graphics & Text | Print | Product List | Glossary Off
Versions: 1 2 3 4 5 6 7 8 9 10 11 12 13 14 15 16 17 18 19 20 21 22 23 24 25 26 27 28 29 30 31 32 33 34 35 36 37 38 39 40 41 42 43 44 45 46 47 48 49 50

000
ASUS43 KEAX 032204
RWREAX

WEATHER ROUNDUP FOR EASTERN KANSAS AND NORTHWEST MISSOURI
NATIONAL WEATHER SERVICE KANSAS CITY/PLEASANT HILL MO
500 PM CDT FRI JUL 03 2015

KSZ040-057-103>105-MOZ028-029-037-043-032300-
...KANSAS CITY METROPOLITAN AREA...

CITY           SKY/WX    TMP DP  RH WIND       PRES   REMARKS
K.C. INTL      SUNNY     79  54  41 N6        29.95F
K.C. DOWNTOWN  SUNNY     81  58  45 N8        29.93F
LEES SUMMIT    SUNNY     78  57  48 NE10      29.94F
OLATHE - IXD   SUNNY     80  60  50 N9        29.94F
OLATHE - OJC   SUNNY     79  58  48 NE10      29.93F
LAWRENCE       SUNNY     80  59  48 VRB6      29.94F

$$

MOZ001>008-011>017-020>025-030>033-038>040-044>046-053-054-032300-
...NORTHERN AND CENTRAL MISSOURI...

CITY           SKY/WX    TMP DP  RH WIND       PRES   REMARKS
ST. JOSEPH     SUNNY     80  58  46 NE6       29.95F
MOSBY          CLEAR     79  54  41 CALM      29.94F
HARRISONVILLE  SUNNY     82  63  51 N9        29.95F
WHITEMAN AFB   SUNNY     79  63  57 NE9       29.92F
CLINTON        MOSUNNY   81  66  61 N9        29.92F
SEDALIA        SUNNY     80  61  52 N7        29.94F
WARSAW         FAIR      81  61  50 NE7       29.93S
CHILLICOTHE      N/A     81  59  47 N5        29.95F
KIRKSVILLE     SUNNY     79  59  50 VRB3      29.95F

$$

MOZ041-047>049-056>058-063>065-088>090-097-032300-
...EASTERN AND SOUTHERN MISSOURI...

CITY           SKY/WX    TMP DP  RH WIND       PRES   REMARKS
ST. LOUIS INTL MOSUNNY   82  63  52 N10       29.89F
SPIRIT OF STL  MOSUNNY   82  62  50 N6        29.88F
COLUMBIA       MOSUNNY   80  61  52 NE8       29.92F
JEFFERSON CITY MOSUNNY   81  59  47 N9        29.90F
MEXICO         MOSUNNY   82  64  54 N5        29.93F
ROLLA          SUNNY     79  61  53 VRB6      29.90F
LEBANON        SUNNY     77  66  69 MISG      29.92F
OSAGE BEACH    PTSUNNY   79  63  57 N5        29.91S
SPRINGFIELD    MOSUNNY   79  67  66 NE13      29.90S
BRANSON        CLOUDY    73  72  94 N6        29.91S
JOPLIN         PTSUNNY   74  66  76 N7        29.92R
WEST PLAINS    PTSUNNY   77  68  73 E3        29.91F

$$

IAZ060-094-KSZ022-034>040-054-083-096-NEZ052-066-093-032300-
...KANSAS...SOUTHEAST NEBRASKA AND IOWA...

CITY           SKY/WX    TMP DP  RH WIND       PRES   REMARKS
TOPEKA         SUNNY     80  59  48 NE7       29.95S
MANHATTAN      MOSUNNY   81  64  56 NE10      29.95F
EMPORIA        CLOUDY    79  65  62 NE8       29.94F
CHANUTE        CLOUDY    81  67  62 NE13G20   29.91S
WICHITA        MOSUNNY   85  62  46 NE10G20   29.93F
OMAHA          SUNNY     79  55  43 NW6       29.97F
LINCOLN        MOSUNNY   79  62  56 N5        29.98F
FALLS CITY     SUNNY     79  57  46 N5        29.95F
LAMONI         SUNNY     79  57  46 VRB5      29.96F
DES MOINES     SUNNY     78  54  43 VRB5      29.95F

$$



USA.gov is the U.S. government's official web portal to all federal, state and local government web resources and services.